Weather History for KABI - September, 2012

Change the Weather History Date:

Tuesday, September 18, 2012

  Actual Average Record
Temperature  
Mean Temperature 68 °F 75 °F  
Max Temperature 77 °F 86 °F 97 °F (1997)
Min Temperature 59 °F 63 °F 48 °F (1991)
Degree Days  
Heating Degree Days 0 0  
Month to date heating degree days 6 0  
Since 1 July heating degree days 6 0  
Cooling Degree Days 3 10  
Month to date cooling degree days 252 227  
Year to date cooling degree days 2740 2172  
Growing Degree Days 18 (Base 50)    
Moisture  
Dew Point 59 °F    
Average Humidity 76    
Maximum Humidity 97    
Minimum Humidity 54    
Precipitation  
Precipitation 0.20 in 0.06 in 3.01 in (1974)
Month to date precipitation 1.40 1.38  
Year to date precipitation 15.06 18.34  
Sea Level Pressure  
Sea Level Pressure 30.07 in    
Wind  
Wind Speed 7 mph (North)    
Max Wind Speed 29 mph    
Max Gust Speed 39 mph    
Visibility 10 miles    
Events Rain , Thunderstorm    
T = Trace of Precipitation, MM = Missing Value Source: NWS Daily Summary

Daily Weather History Graph

Daily Weather History Graph

Search for Another Location

Airport or City:

Trip Planner

Search our weather history database for the weather conditions in past years. The results will help you decide how hot, cold, wet, or windy it might be!

Date:

Astronomy

Sep. 18, 2012 Rise Set
Actual Time 7:24 AM CDT 7:40 PM CDT
Civil Twilight 7:00 AM CDT 8:04 PM CDT
Nautical Twilight 6:31 AM CDT 8:33 PM CDT
Astronomical Twilight 6:02 AM CDT 9:02 PM CDT
Moon 10:12 AM CDT (9/18) 9:19 PM CDT (9/18)
Length of Visible Light 13h 04m
Length of Day
12h 15m
Waxing Crescent, 9% of the Moon is Illuminated
Sep 18
Waxing Crescent
Sep 22
First Quarter
Sep 29
Full
Oct 8
Last Quarter
Oct 15
New

Hourly Weather History & Observations

Time (CDT) Temp. Dew Point Humidity Pressure Visibility Wind Dir Wind Speed Gust Speed Precip Events Conditions
12:52 AM 66.9 °F 61.0 °F 81% 29.90 in 10.0 mi SE 9.2 mph - N/A   Clear
1:52 AM 66.9 °F 61.0 °F 81% 29.91 in 10.0 mi Calm Calm - N/A   Clear
2:52 AM 64.9 °F 61.0 °F 87% 29.93 in 10.0 mi WSW 3.5 mph - N/A   Clear
3:52 AM 66.0 °F 62.1 °F 87% 29.94 in 10.0 mi Calm Calm - N/A   Overcast
4:52 AM 66.0 °F 62.1 °F 87% 29.91 in 10.0 mi East 4.6 mph - N/A   Clear
5:52 AM 64.9 °F 62.1 °F 90% 30.00 in 10.0 mi NNW 18.4 mph - N/A   Partly Cloudy
6:16 AM 64.4 °F 59.0 °F 83% 30.11 in 10.0 mi North 19.6 mph 39.1 mph N/A   Overcast
6:30 AM 64.4 °F 55.4 °F 73% 30.10 in 10.0 mi North 20.7 mph 34.5 mph 0.00 in Rain , Thunderstorm Thunderstorms and Rain
6:40 AM 62.6 °F 55.4 °F 77% 30.11 in 10.0 mi North 23.0 mph 28.8 mph 0.00 in Rain , Thunderstorm Light Thunderstorms and Rain
6:52 AM 61.0 °F 55.9 °F 83% 30.04 in 10.0 mi North 16.1 mph 25.3 mph 0.00 in Rain , Thunderstorm Light Thunderstorms and Rain
7:52 AM 60.1 °F 57.9 °F 93% 30.07 in 5.0 mi North 11.5 mph - 0.06 in Rain , Thunderstorm Light Thunderstorms and Rain
8:43 AM 60.8 °F 59.0 °F 94% 30.11 in 6.0 mi East 3.5 mph - 0.13 in Rain , Thunderstorm Light Thunderstorms and Rain
8:52 AM 60.1 °F 59.0 °F 96% 30.04 in 10.0 mi ESE 6.9 mph - 0.14 in Rain , Thunderstorm Light Thunderstorms and Rain
9:27 AM 60.8 °F 59.0 °F 94% 30.12 in 10.0 mi NNW 13.8 mph - 0.00 in Rain Light Rain
9:52 AM 61.0 °F 59.0 °F 93% 30.08 in 10.0 mi NNW 13.8 mph 20.7 mph 0.00 in   Overcast
10:35 AM 62.6 °F 59.0 °F 88% 30.15 in 10.0 mi North 11.5 mph - N/A   Overcast
10:52 AM 61.0 °F 59.0 °F 93% 30.10 in 10.0 mi North 12.7 mph - N/A   Overcast
11:07 AM 60.8 °F 59.0 °F 94% 30.16 in 10.0 mi North 11.5 mph - N/A   Overcast
11:48 AM 62.6 °F 57.2 °F 82% 30.18 in 10.0 mi North 10.4 mph - N/A   Overcast
11:52 AM 62.1 °F 57.9 °F 86% 30.12 in 10.0 mi North 11.5 mph - N/A   Overcast
12:08 PM 62.6 °F 57.2 °F 82% 30.18 in 10.0 mi North 12.7 mph - N/A   Overcast
12:52 PM 64.0 °F 57.9 °F 80% 30.14 in 10.0 mi North 9.2 mph - N/A   Overcast
12:59 PM 64.4 °F 57.2 °F 77% 30.19 in 10.0 mi North 9.2 mph - N/A   Overcast
1:42 PM 68.0 °F 59.0 °F 73% 30.18 in 10.0 mi North 9.2 mph - N/A   Overcast
1:52 PM 68.0 °F 59.0 °F 73% 30.12 in 10.0 mi NNW 10.4 mph - N/A   Overcast
2:52 PM 71.1 °F 60.1 °F 68% 30.10 in 10.0 mi NNW 9.2 mph - N/A   Mostly Cloudy
3:16 PM 71.6 °F 59.0 °F 64% 30.14 in 10.0 mi NNE 8.1 mph - N/A   Scattered Clouds
3:52 PM 73.9 °F 60.1 °F 62% 30.07 in 10.0 mi North 6.9 mph - N/A   Clear
4:52 PM 75.9 °F 59.0 °F 56% 30.04 in 10.0 mi NNE 6.9 mph - N/A   Clear
5:52 PM 77.0 °F 59.0 °F 54% 30.03 in 10.0 mi North 8.1 mph - N/A   Clear
6:52 PM 75.9 °F 59.0 °F 56% 30.04 in 10.0 mi North 5.8 mph - N/A   Clear
7:52 PM 72.0 °F 60.1 °F 66% 30.05 in 10.0 mi Calm Calm - N/A   Clear
8:52 PM 68.0 °F 61.0 °F 78% 30.07 in 10.0 mi ESE 3.5 mph - N/A   Clear
9:52 PM 64.9 °F 61.0 °F 87% 30.09 in 10.0 mi Calm Calm - N/A   Clear
10:52 PM 63.0 °F 60.1 °F 90% 30.10 in 10.0 mi South 5.8 mph - N/A   Clear
11:52 PM 61.0 °F 59.0 °F 93% 30.10 in 10.0 mi SSE 5.8 mph - N/A   Clear